GW1163 Weather Reports


time (UTC)temp
C
wind
direction
speed
KPH
gust
KPH
rain 1hr
cm
rain 24hr
cm
rain mn
cm
humidity
%
barometer
mb
20260507012539 22 164 1.6 11.3 0.00 0.00 0.00 80 1014.2
20260507012039 22 188 1.6 11.3 0.00 0.00 0.00 80 1014.3
20260507011556 22 88 1.6 11.3 0.00 0.00 0.00 80 1014.5
20260507011039 22 0 1.6 9.7 0.00 0.00 0.00 79 1014.5
20260507010539 22 137 1.6 9.7 0.00 0.00 0.00 79 1014.5
20260507010049 22 182 1.6 9.7 0.00 0.00 0.00 78 1014.6
20260507005536 22 211 1.6 12.9 0.00 0.00 0.00 78 1014.7
20260507005035 22 191 1.6 12.9 0.00 0.00 0.00 78 1014.6
20260507004552 22 180 1.6 8.0 0.00 0.00 0.00 78 1014.7
20260507004040 22 185 0.0 9.7 0.00 0.00 0.00 78 1014.5
20260507003540 22 190 1.6 9.7 0.00 0.00 0.00 78 1014.5
20260507003049 22 0 1.6 8.0 0.00 0.00 0.00 78 1014.4
20260507002538 22 123 0.0 8.0 0.00 0.00 0.00 78 1014.5
20260507002039 22 159 3.2 9.7 0.00 0.00 0.00 78 1014.4
20260507001600 22 184 1.6 11.3 0.00 0.00 0.00 78 1014.4
20260507001038 22 155 1.6 11.3 0.00 0.00 0.00 78 1014.4
20260507000538 22 216 3.2 11.3 0.00 0.00 0.00 77 1014.5
20260507000104 23 132 1.6 9.7 0.00 0.00 0.00 77 1014.4
20260506235538 23 142 1.6 8.0 0.00 0.00 0.00 76 1014.5
20260506235038 23 184 1.6 8.0 0.00 0.00 0.00 76 1014.6
20260506234605 23 188 3.2 11.3 0.00 0.00 0.00 76 1014.5
20260506234040 23 148 1.6 14.5 0.00 0.00 0.00 75 1014.7
20260506233540 23 157 1.6 14.5 0.00 0.00 0.00 75 1014.6
20260506233055 23 194 3.2 14.5 0.00 0.00 0.00 74 1014.4
20260506232542 23 203 1.6 8.0 0.00 0.00 0.00 75 1014.3
20260506232039 23 128 1.6 11.3 0.00 0.00 0.00 74 1014.5
20260506231548 23 208 3.2 11.3 0.00 0.00 0.00 73 1014.4
20260506231040 23 232 0.0 11.3 0.00 0.00 0.00 73 1014.4
20260506230538 23 0 1.6 14.5 0.00 0.00 0.00 72 1014.4
20260506230101 24 198 3.2 14.5 0.00 0.00 0.00 71 1014.5
20260506225542 24 170 1.6 6.4 0.00 0.00 0.00 71 1014.4
20260506225041 24 164 1.6 6.4 0.00 0.00 0.00 71 1014.5
20260506224551 24 169 1.6 11.3 0.00 0.00 0.00 71 1014.4
20260506224038 24 184 1.6 12.9 0.00 0.00 0.00 70 1014.5
20260506223540 24 213 1.6 12.9 0.00 0.00 0.00 69 1014.5
20260506223049 25 0 1.6 14.5 0.00 0.00 0.00 69 1014.3
20260506222540 25 171 3.2 14.5 0.00 0.00 0.00 67 1014.1
20260506222038 25 182 3.2 9.7 0.00 0.00 0.00 67 1014.2
20260506221600 25 163 3.2 11.3 0.00 0.00 0.00 68 1014.3
20260506221038 25 217 3.2 12.9 0.00 0.00 0.00 67 1014.2
20260506220540 25 232 4.8 12.9 0.00 0.00 0.00 67 1014.3
20260506220050 26 199 4.8 12.9 0.00 0.00 0.00 66 1014.2
20260506215539 26 71 3.2 11.3 0.00 0.00 0.00 66 1014.0
20260506215041 26 151 3.2 11.3 0.00 0.00 0.00 67 1014.2
20260506214559 26 217 3.2 16.1 0.00 0.00 0.00 66 1014.4
20260506214039 26 213 3.2 16.1 0.00 0.00 0.00 66 1014.3
20260506213541 26 192 4.8 17.7 0.00 0.00 0.00 65 1014.4
20260506213053 26 227 4.8 17.7 0.00 0.00 0.00 65 1014.5
20260506212538 26 217 4.8 16.1 0.00 0.00 0.00 64 1014.5
20260506212043 26 174 4.8 16.1 0.00 0.00 0.00 65 1014.4
20260506211553 26 243 4.8 16.1 0.00 0.00 0.00 63 1014.4
20260506211036 27 155 3.2 14.5 0.00 0.00 0.00 62 1014.4
20260506210536 27 146 3.2 12.9 0.00 0.00 0.00 64 1014.5
20260506210051 26 234 3.2 16.1 0.00 0.00 0.00 64 1014.5
20260506205536 26 196 4.8 16.1 0.00 0.00 0.00 63 1014.4
20260506205036 27 163 3.2 22.5 0.00 0.00 0.00 64 1014.4
20260506204552 26 200 4.8 22.5 0.00 0.00 0.00 64 1014.4
20260506204036 26 348 6.4 22.5 0.00 0.00 0.00 64 1014.3
20260506203536 27 168 4.8 16.1 0.00 0.00 0.00 63 1014.6
20260506203053 27 194 6.4 12.9 0.00 0.00 0.00 64 1014.7
20260506202536 27 196 3.2 16.1 0.00 0.00 0.00 63 1014.7
20260506202042 27 227 4.8 16.1 0.00 0.00 0.00 64 1014.8
20260506201547 27 169 4.8 11.3 0.00 0.00 0.00 64 1014.9
20260506201036 27 235 4.8 11.3 0.00 0.00 0.00 63 1014.9
20260506200535 27 186 3.2 14.5 0.00 0.00 0.00 62 1014.9
20260506200046 27 115 4.8 14.5 0.00 0.00 0.00 62 1015.1
20260506195536 27 207 4.8 16.1 0.00 0.00 0.00 61 1015.0
20260506195036 27 171 3.2 16.1 0.00 0.00 0.00 65 1015.1
20260506194546 28 46 1.6 8.0 0.00 0.00 0.00 64 1015.1
20260506194038 27 196 1.6 9.7 0.00 0.00 0.00 66 1015.2
20260506193535 28 213 1.6 9.7 0.00 0.00 0.00 66 1015.3
20260506193054 27 160 3.2 11.3 0.00 0.00 0.00 64 1015.3
20260506192536 27 153 3.2 11.3 0.00 0.00 0.00 64 1015.3
20260506192036 28 172 3.2 9.7 0.00 0.00 0.00 64 1015.3
20260506191559 28 174 3.2 12.9 0.00 0.00 0.00 63 1015.3
20260506191039 28 163 3.2 12.9 0.00 0.00 0.00 63 1015.3
20260506190540 28 141 3.2 11.3 0.00 0.00 0.00 63 1015.4
20260506190050 28 167 3.2 8.0 0.00 0.00 0.00 64 1015.5
20260506185536 28 121 1.6 11.3 0.00 0.00 0.00 66 1015.6
20260506185038 27 136 1.6 11.3 0.00 0.00 0.00 64 1015.8
20260506184555 27 171 3.2 11.3 0.00 0.00 0.00 66 1015.9
20260506184036 28 68 1.6 14.5 0.00 0.00 0.00 68 1015.9
20260506183536 27 206 3.2 14.5 0.00 0.00 0.00 65 1016.0
20260506183101 27 135 3.2 11.3 0.00 0.00 0.00 66 1016.3
20260506182539 27 204 3.2 9.7 0.00 0.00 0.00 64 1016.3
20260506182035 27 153 3.2 9.7 0.00 0.00 0.00 67 1016.3
20260506181604 27 135 1.6 9.7 0.00 0.00 0.00 65 1016.2
20260506181036 27 188 1.6 11.3 0.00 0.00 0.00 67 1016.2
20260506180539 27 84 3.2 12.9 0.00 0.00 0.00 67 1016.2
20260506180054 27 211 1.6 12.9 0.00 0.00 0.00 69 1016.3
20260506175536 27 118 3.2 9.7 0.00 0.00 0.00 67 1016.3
20260506175038 27 0 3.2 9.7 0.00 0.00 0.00 69 1016.4
20260506174548 27 138 3.2 14.5 0.00 0.00 0.00 68 1016.6
20260506174038 27 161 4.8 14.5 0.00 0.00 0.00 69 1016.5
20260506173539 27 0 1.6 8.0 0.00 0.00 0.00 69 1016.7
20260506173114 26 153 1.6 8.0 0.00 0.00 0.00 70 1016.8
20260506172535 26 121 1.6 6.4 0.00 0.00 0.00 67 1016.7
20260506172036 26 208 1.6 11.3 0.00 0.00 0.00 67 1016.8
20260506171545 26 278 3.2 11.3 0.00 0.00 0.00 66 1016.8
20260506171036 27 196 3.2 8.0 0.00 0.00 0.00 66 1016.9
20260506170536 27 317 1.6 9.7 0.00 0.00 0.00 66 1016.8
20260506170105 27 212 3.2 12.9 0.00 0.00 0.00 66 1017.0
20260506165535 27 64 1.6 12.9 0.00 0.00 0.00 65 1016.8
20260506165036 27 243 1.6 14.5 0.00 0.00 0.00 64 1017.0
20260506164546 26 143 3.2 14.5 0.00 0.00 0.00 69 1016.8
20260506164040 27 213 1.6 12.9 0.00 0.00 0.00 67 1016.9
20260506163535 27 182 3.2 11.3 0.00 0.00 0.00 68 1017.0
20260506163056 27 129 3.2 9.7 0.00 0.00 0.00 66 1016.9
20260506162538 27 142 3.2 9.7 0.00 0.00 0.00 65 1016.8
20260506162038 26 171 3.2 9.7 0.00 0.00 0.00 69 1017.0
20260506161549 26 169 3.2 11.3 0.00 0.00 0.00 66 1017.0
20260506161040 26 80 3.2 11.3 0.00 0.00 0.00 68 1017.1
20260506160536 26 204 1.6 14.5 0.00 0.00 0.00 68 1017.2
20260506160053 26 90 1.6 16.1 0.00 0.00 0.00 68 1017.2
20260506155542 26 0 3.2 16.1 0.00 0.00 0.00 68 1017.2
20260506155041 25 234 4.8 9.7 0.00 0.00 0.00 67 1017.2
20260506154608 26 0 1.6 8.0 0.00 0.00 0.00 68 1017.2
20260506154040 26 190 1.6 8.0 0.00 0.00 0.00 67 1017.2
20260506153540 26 0 1.6 8.0 0.00 0.00 0.00 69 1017.3
20260506153046 25 160 3.2 8.0 0.00 0.00 0.00 66 1017.2
20260506152536 26 0 1.6 11.3 0.00 0.00 0.00 69 1017.2
20260506152035 25 171 1.6 11.3 0.00 0.00 0.00 66 1017.1
20260506151547 26 171 3.2 8.0 0.00 0.00 0.00 65 1017.2
20260506151036 26 187 1.6 9.7 0.00 0.00 0.00 66 1017.1
20260506150536 26 201 1.6 9.7 0.00 0.00 0.00 67 1017.2
20260506150050 26 165 3.2 9.7 0.00 0.00 0.00 64 1017.1
20260506145536 26 156 1.6 9.7 0.00 0.00 0.00 63 1017.1
20260506145035 26 175 1.6 9.7 0.00 0.00 0.00 65 1017.1
20260506144556 26 0 1.6 11.3 0.00 0.00 0.00 64 1017.0
20260506144035 26 259 1.6 11.3 0.00 0.00 0.00 63 1016.8
20260506143536 25 220 1.6 9.7 0.00 0.00 0.00 63 1016.8
20260506143053 25 202 3.2 9.7 0.00 0.00 0.00 61 1016.7
20260506142540 25 136 1.6 14.5 0.00 0.00 0.00 60 1016.7
20260506142039 25 227 1.6 14.5 0.00 0.00 0.00 64 1016.7
20260506141548 25 217 3.2 11.3 0.00 0.00 0.00 63 1016.8
20260506141038 25 167 3.2 9.7 0.00 0.00 0.00 65 1017.0
20260506140540 25 257 3.2 11.3 0.00 0.00 0.00 65 1016.9
20260506140047 25 266 1.6 11.3 0.00 0.00 0.00 63 1016.8
20260506135538 25 217 1.6 11.3 0.00 0.00 0.00 64 1016.8
20260506135036 25 0 1.6 14.5 0.00 0.00 0.00 66 1016.8
20260506134551 24 188 3.2 14.5 0.00 0.00 0.00 67 1016.6
20260506134036 24 265 1.6 9.7 0.00 0.00 0.00 67 1016.6
20260506133535 24 233 1.6 9.7 0.00 0.00 0.00 68 1016.7
20260506133102 23 186 3.2 11.3 0.00 0.00 0.00 68 1016.6
20260506132539 23 105 1.6 11.3 0.00 0.00 0.00 68 1016.6
20260506132037 23 182 1.6 9.7 0.00 0.00 0.00 70 1016.6
20260506131548 23 227 1.6 6.4 0.00 0.00 0.00 70 1016.7
20260506131037 23 133 1.6 16.1 0.00 0.00 0.00 73 1016.5
20260506130539 22 151 1.6 16.1 0.00 0.00 0.00 73 1016.5
20260506130119 22 184 3.2 9.7 0.00 0.00 0.00 74 1016.5
20260506125538 22 176 3.2 8.0 0.00 0.00 0.00 75 1016.4
20260506125038 22 198 1.6 8.0 0.00 0.00 0.00 76 1016.3
20260506124546 22 180 1.6 12.9 0.00 0.00 0.00 77 1016.3
20260506124036 21 215 3.2 12.9 0.00 0.00 0.00 77 1016.4
20260506123536 21 223 1.6 9.7 0.00 0.00 0.00 78 1016.3
20260506123050 21 163 1.6 8.0 0.00 0.00 0.00 79 1016.2
20260506122536 21 139 0.0 8.0 0.00 0.00 0.00 80 1016.3
20260506122036 21 0 1.6 8.0 0.00 0.00 0.00 81 1016.4
20260506121550 21 0 0.0 4.8 0.00 0.00 0.00 81 1016.5
20260506121036 20 202 0.0 4.8 0.00 0.00 0.00 82 1016.4
20260506120536 20 198 1.6 4.8 0.00 0.00 0.00 84 1016.5
20260506120052 20 0 0.0 3.2 0.00 0.00 0.00 86 1016.4
20260506115536 19 0 0.0 3.2 0.00 0.00 0.00 87 1016.4
20260506115040 18 0 0.0 0.0 0.00 0.00 0.00 87 1016.4
20260506114549 18 0 0.0 0.0 0.00 0.00 0.00 88 1016.2
20260506114039 17 0 0.0 0.0 0.00 0.00 0.00 89 1016.1
20260506113536 17 0 0.0 0.0 0.00 0.00 0.00 89 1016.1
20260506113046 16 0 0.0 0.0 0.00 0.00 0.00 89 1016.2
20260506112537 16 0 0.0 0.0 0.00 0.00 0.00 89 1016.0
20260506112038 16 0 0.0 0.0 0.00 0.00 0.00 90 1015.9
20260506111546 16 0 0.0 0.0 0.00 0.00 0.00 90 1015.9
20260506111036 15 0 0.0 0.0 0.00 0.00 0.00 90 1016.0
20260506110536 15 0 0.0 0.0 0.00 0.00 0.00 90 1016.1
20260506110050 15 0 0.0 0.0 0.00 0.00 0.00 90 1016.0
20260506105536 15 0 0.0 0.0 0.00 0.00 0.00 90 1016.0
20260506105040 15 0 0.0 0.0 0.00 0.00 0.00 90 1016.0
20260506104610 15 0 0.0 0.0 0.00 0.00 0.00 90 1016.1
20260506104035 15 0 0.0 0.0 0.00 0.00 0.00 89 1016.0
20260506103540 15 0 0.0 0.0 0.00 0.00 0.00 89 1015.8
20260506103046 15 0 0.0 0.0 0.00 0.00 0.00 90 1015.8
20260506102537 15 0 0.0 0.0 0.00 0.00 0.00 90 1015.7
20260506102039 15 0 0.0 0.0 0.00 0.00 0.00 90 1015.9
20260506101549 15 0 0.0 0.0 0.00 0.00 0.00 89 1015.8
20260506101036 15 0 0.0 0.0 0.00 0.00 0.00 89 1015.7
20260506100538 15 0 0.0 0.0 0.00 0.00 0.00 89 1015.9
20260506100050 15 0 0.0 0.0 0.00 0.00 0.00 89 1015.8
20260506095536 15 0 0.0 0.0 0.00 0.00 0.00 89 1015.7
20260506095035 15 0 0.0 0.0 0.00 0.00 0.00 89 1015.7
20260506094549 15 0 0.0 0.0 0.00 0.00 0.00 89 1015.7
20260506094035 15 0 0.0 0.0 0.00 0.00 0.00 89 1015.8
20260506093537 15 0 0.0 0.0 0.00 0.00 0.00 89 1015.7
20260506093051 15 0 0.0 0.0 0.00 0.00 0.00 89 1015.9
20260506092536 15 0 0.0 0.0 0.00 0.00 0.00 89 1015.8
20260506092036 15 0 0.0 0.0 0.00 0.00 0.00 89 1015.9
20260506091548 15 0 0.0 0.0 0.00 0.00 0.00 89 1015.8
20260506091038 15 0 0.0 0.0 0.00 0.00 0.00 89 1015.9
20260506090539 15 0 0.0 0.0 0.00 0.00 0.00 89 1015.9
20260506090048 15 0 0.0 0.0 0.00 0.00 0.00 89 1016.0
20260506085538 15 0 0.0 0.0 0.00 0.00 0.00 89 1015.9
20260506085036 15 0 0.0 0.0 0.00 0.00 0.00 89 1015.9
20260506084547 15 0 0.0 0.0 0.00 0.00 0.00 89 1016.0
20260506084035 15 0 0.0 0.0 0.00 0.00 0.00 88 1016.1
20260506083539 15 0 0.0 0.0 0.00 0.00 0.00 88 1016.2
20260506083050 15 0 0.0 0.0 0.00 0.00 0.00 88 1016.0
20260506082536 15 0 0.0 0.0 0.00 0.00 0.00 88 1016.1
20260506082036 15 0 0.0 0.0 0.00 0.00 0.00 88 1016.0
20260506081545 15 0 0.0 0.0 0.00 0.00 0.00 88 1016.1
20260506081039 15 0 0.0 0.0 0.00 0.00 0.00 88 1016.0
20260506080538 15 0 0.0 0.0 0.00 0.00 0.00 88 1015.9
20260506073051 15 0 0.0 0.0 0.00 0.00 0.00 88 1015.6
20260506072536 15 0 0.0 0.0 0.00 0.00 0.00 88 1015.6
20260506072040 15 0 0.0 0.0 0.00 0.00 0.00 88 1015.6
20260506071554 15 0 0.0 0.0 0.00 0.00 0.00 88 1015.5
20260506071036 15 0 0.0 0.0 0.00 0.00 0.00 88 1015.5
20260506070537 15 0 0.0 0.0 0.00 0.00 0.00 88 1015.5
20260506062036 15 0 0.0 0.0 0.00 0.00 0.00 87 1016.0
20260506061551 15 0 0.0 0.0 0.00 0.00 0.00 87 1015.8
20260506061039 15 0 0.0 0.0 0.00 0.00 0.00 87 1015.9
20260506060541 15 0 0.0 0.0 0.00 0.00 0.00 87 1015.9
20260506051036 15 0 0.0 0.0 0.00 0.00 0.00 85 1016.5
20260506050539 15 0 0.0 0.0 0.00 0.00 0.00 85 1016.5
20260506045036 16 0 0.0 0.0 0.00 0.00 0.00 84 1016.5
20260506044600 16 0 0.0 0.0 0.00 0.00 0.00 84 1016.6
20260506044036 16 0 0.0 0.0 0.00 0.00 0.00 84 1016.7
20260506043536 16 0 0.0 0.0 0.00 0.00 0.00 84 1016.8
20260506043053 16 0 0.0 0.0 0.00 0.00 0.00 83 1016.8
20260506042536 16 0 0.0 0.0 0.00 0.00 0.00 83 1016.7
20260506042037 16 0 0.0 0.0 0.00 0.00 0.00 82 1016.9
20260506041545 16 0 0.0 0.0 0.00 0.00 0.00 82 1016.8
20260506041035 16 0 0.0 0.0 0.00 0.00 0.00 82 1016.8
20260506040539 17 0 0.0 0.0 0.00 0.00 0.00 81 1016.6
20260506040050 17 0 0.0 0.0 0.00 0.00 0.00 81 1016.9
20260506035536 17 0 0.0 0.0 0.00 0.00 0.00 80 1016.8
20260506035036 17 0 0.0 0.0 0.00 0.00 0.00 79 1016.8
20260506034547 17 0 0.0 0.0 0.00 0.00 0.00 78 1016.8
20260506034037 17 0 0.0 0.0 0.00 0.00 0.00 77 1016.7
20260506033536 18 0 0.0 3.2 0.00 0.00 0.00 77 1016.7
20260506033047 18 0 0.0 3.2 0.00 0.00 0.00 77 1016.7
20260506032536 17 136 0.0 0.0 0.00 0.00 0.00 77 1016.7
20260506032037 17 0 0.0 1.6 0.00 0.00 0.00 76 1016.7
20260506031552 18 0 0.0 1.6 0.00 0.00 0.00 76 1016.8
20260506031038 18 0 0.0 1.6 0.00 0.00 0.00 75 1016.7
20260506030537 18 0 0.0 1.6 0.00 0.00 0.00 75 1016.7
20260506030048 18 0 0.0 0.0 0.00 0.00 0.00 74 1016.8
20260506025535 18 0 0.0 1.6 0.00 0.00 0.00 74 1016.9
20260506025036 18 0 0.0 3.2 0.00 0.00 0.00 74 1016.9
20260506024555 18 0 0.0 3.2 0.00 0.00 0.00 74 1017.0
20260506024036 18 0 0.0 3.2 0.00 0.00 0.00 74 1017.0
20260506023537 18 0 0.0 0.0 0.00 0.00 0.00 74 1017.1
20260506023048 17 0 0.0 0.0 0.00 0.00 0.00 75 1017.1
20260506022536 17 0 0.0 0.0 0.00 0.00 0.00 75 1017.2
20260506022036 17 0 0.0 0.0 0.00 0.00 0.00 76 1017.2
20260506021554 17 0 0.0 0.0 0.00 0.00 0.00 76 1017.2
20260506021036 17 0 0.0 0.0 0.00 0.00 0.00 76 1017.2
20260506020535 18 0 0.0 0.0 0.00 0.00 0.00 75 1017.1
20260506020047 18 0 0.0 1.6 0.00 0.00 0.00 73 1017.2
20260506015536 18 0 0.0 1.6 0.00 0.00 0.00 73 1017.1
20260506015037 18 0 0.0 3.2 0.00 0.00 0.00 72 1016.8
20260506014547 18 0 0.0 3.2 0.00 0.00 0.00 72 1017.0
20260506014039 18 178 1.6 6.4 0.00 0.00 0.00 72 1016.7
20260506013536 18 134 0.0 6.4 0.00 0.00 0.00 72 1016.6
20260506013048 18 0 0.0 3.2 0.00 0.00 0.00 72 1016.8